Time,TemperatureF,DewpointF,PressureIn,WindDirection,WindDirectionDegrees,WindSpeedMPH,WindSpeedGustMPH,Humidity,HourlyPrecipIn,Conditions,Clouds,dailyrainin,SoftwareType,DateUTC
2013-02-10 00:01:00,68.3,68.3,29.82,SE,130,15.0,15.0,100,0.00,RA,,0.00,WeatherDisplay:10.37,2013-02-10 06:01:00,
2013-02-10 00:06:00,68.5,68.5,29.82,SE,144,11.5,11.5,100,0.00,RA,,0.00,WeatherDisplay:10.37,2013-02-10 06:06:00,
2013-02-10 00:11:00,68.5,68.5,29.81,SSE,153,12.7,12.7,100,0.00,CLR,,0.00,WeatherDisplay:10.37,2013-02-10 06:11:00,
2013-02-10 00:16:00,68.6,68.6,29.81,SSE,155,15.0,15.0,100,0.00,CLR,,0.00,WeatherDisplay:10.37,2013-02-10 06:16:00,
2013-02-10 00:21:00,68.6,68.6,29.80,SE,127,16.1,16.1,100,0.00,CLR,,0.00,WeatherDisplay:10.37,2013-02-10 06:21:00,
2013-02-10 00:26:00,68.6,68.6,29.80,SE,146,12.7,12.7,100,0.00,CLR,,0.00,WeatherDisplay:10.37,2013-02-10 06:26:00,
2013-02-10 00:31:00,68.6,68.6,29.80,SSE,148,11.5,11.5,100,0.00,CLR,,0.00,WeatherDisplay:10.37,2013-02-10 06:31:00,
2013-02-10 00:36:00,68.5,68.5,29.80,SE,141,6.9,6.9,100,0.00,CLR,,0.00,WeatherDisplay:10.37,2013-02-10 06:36:00,
2013-02-10 00:41:00,68.5,68.5,29.80,SSE,154,15.0,15.0,100,0.00,CLR,,0.00,WeatherDisplay:10.37,2013-02-10 06:41:00,
2013-02-10 00:46:00,68.5,68.5,29.80,ESE,115,12.7,12.7,100,0.00,CLR,,0.00,WeatherDisplay:10.37,2013-02-10 06:46:00,
2013-02-10 00:51:00,68.3,68.3,29.80,ESE,122,13.8,13.8,100,0.00,CLR,,0.00,WeatherDisplay:10.37,2013-02-10 06:51:00,
2013-02-10 00:56:00,68.1,68.1,29.80,SE,124,12.7,12.7,100,0.00,CLR,,0.00,WeatherDisplay:10.37,2013-02-10 06:56:00,
2013-02-10 01:01:00,68.0,68.0,29.80,SE,142,18.4,18.4,100,0.00,CLR,,0.00,WeatherDisplay:10.37,2013-02-10 07:01:00,
2013-02-10 01:06:00,67.9,67.9,29.80,SSE,148,15.0,15.0,100,0.00,CLR,,0.00,WeatherDisplay:10.37,2013-02-10 07:06:00,
2013-02-10 01:11:00,68.0,68.0,29.79,SSE,165,15.0,15.0,100,0.00,CLR,,0.00,WeatherDisplay:10.37,2013-02-10 07:11:00,
2013-02-10 01:16:00,68.0,68.0,29.80,SE,136,18.4,18.4,100,0.00,CLR,,0.00,WeatherDisplay:10.37,2013-02-10 07:16:00,
2013-02-10 01:21:00,68.0,68.0,29.80,SSE,158,18.4,18.4,100,0.00,CLR,,0.00,WeatherDisplay:10.37,2013-02-10 07:21:00,
2013-02-10 01:26:00,68.1,68.1,29.80,SE,138,13.8,13.8,100,0.00,CLR,,0.00,WeatherDisplay:10.37,2013-02-10 07:26:00,
2013-02-10 01:31:00,68.1,68.1,29.79,ESE,121,12.6,12.6,100,0.00,CLR,,0.00,WeatherDisplay:10.37,2013-02-10 07:31:00,
2013-02-10 01:36:00,68.2,68.2,29.79,SSE,150,17.3,17.3,100,0.00,CLR,,0.00,WeatherDisplay:10.37,2013-02-10 07:36:00,
2013-02-10 01:41:00,68.2,68.2,29.80,SSE,167,10.4,10.4,100,0.00,CLR,,0.00,WeatherDisplay:10.37,2013-02-10 07:41:00,
2013-02-10 01:46:00,68.2,68.2,29.80,SSE,153,10.4,10.4,100,0.00,CLR,,0.00,WeatherDisplay:10.37,2013-02-10 07:46:00,
2013-02-10 01:51:00,68.3,68.3,29.79,ESE,117,12.7,12.7,100,0.00,CLR,,0.00,WeatherDisplay:10.37,2013-02-10 07:51:00,
2013-02-10 01:56:00,68.3,68.3,29.78,SE,142,10.4,10.4,100,0.00,CLR,,0.00,WeatherDisplay:10.37,2013-02-10 07:56:00,
2013-02-10 02:01:00,68.2,68.2,29.79,SE,125,9.2,9.2,100,0.00,CLR,,0.00,WeatherDisplay:10.37,2013-02-10 08:01:00,
2013-02-10 02:06:00,68.3,68.3,29.78,SE,133,10.4,10.4,100,0.00,CLR,,0.00,WeatherDisplay:10.37,2013-02-10 08:06:00,
2013-02-10 02:11:00,68.2,68.2,29.78,ESE,122,10.4,10.4,100,0.00,CLR,,0.00,WeatherDisplay:10.37,2013-02-10 08:11:00,
2013-02-10 02:16:00,68.3,68.3,29.78,SSE,162,12.7,12.7,100,0.00,CLR,,0.00,WeatherDisplay:10.37,2013-02-10 08:16:00,
2013-02-10 02:21:00,68.5,68.5,29.78,SSE,153,10.4,10.4,100,0.00,CLR,,0.00,WeatherDisplay:10.37,2013-02-10 08:21:00,
2013-02-10 02:26:00,68.5,68.5,29.78,SE,128,12.7,12.7,100,0.00,CLR,,0.00,WeatherDisplay:10.37,2013-02-10 08:26:00,
2013-02-10 02:31:00,68.5,68.5,29.78,SE,129,12.6,12.6,100,0.00,CLR,,0.00,WeatherDisplay:10.37,2013-02-10 08:31:00,
2013-02-10 02:36:00,68.7,68.7,29.78,SE,143,8.1,8.1,100,0.00,CLR,,0.00,WeatherDisplay:10.37,2013-02-10 08:36:00,
2013-02-10 02:41:00,68.7,68.7,29.78,SE,139,11.5,11.5,100,0.00,CLR,,0.00,WeatherDisplay:10.37,2013-02-10 08:41:00,
2013-02-10 02:46:00,68.6,68.6,29.77,SE,143,10.4,10.4,100,0.00,CLR,,0.00,WeatherDisplay:10.37,2013-02-10 08:46:00,
2013-02-10 02:51:00,68.6,68.6,29.77,SE,138,17.3,17.3,100,0.00,CLR,,0.00,WeatherDisplay:10.37,2013-02-10 08:51:00,
2013-02-10 02:56:00,68.6,68.6,29.77,ESE,120,9.4,9.4,100,0.00,CLR,,0.00,WeatherDisplay:10.37,2013-02-10 08:56:00,
2013-02-10 03:01:00,68.6,68.6,29.76,SSE,151,9.2,9.2,100,0.00,CLR,,0.00,WeatherDisplay:10.37,2013-02-10 09:01:00,
2013-02-10 03:06:00,68.7,68.7,29.76,SE,127,15.0,15.0,100,0.00,CLR,,0.00,WeatherDisplay:10.37,2013-02-10 09:06:00,
2013-02-10 03:11:00,68.7,68.7,29.76,SE,144,8.1,8.1,100,0.00,CLR,,0.00,WeatherDisplay:10.37,2013-02-10 09:11:00,
2013-02-10 03:16:00,68.7,68.7,29.76,SE,136,10.4,10.4,100,0.00,CLR,,0.00,WeatherDisplay:10.37,2013-02-10 09:16:00,
2013-02-10 03:21:00,68.6,68.6,29.76,SSE,158,6.9,6.9,100,0.00,CLR,,0.00,WeatherDisplay:10.37,2013-02-10 09:21:00,
2013-02-10 03:26:00,68.6,68.6,29.76,SE,144,16.1,16.1,100,0.00,CLR,,0.00,WeatherDisplay:10.37,2013-02-10 09:26:00,
2013-02-10 03:31:00,68.6,68.6,29.75,South,181,8.1,8.1,100,0.00,CLR,,0.00,WeatherDisplay:10.37,2013-02-10 09:31:00,
2013-02-10 03:36:00,68.6,68.6,29.75,SE,144,12.7,12.7,100,0.00,CLR,,0.00,WeatherDisplay:10.37,2013-02-10 09:36:00,
2013-02-10 03:41:00,68.4,68.4,29.74,SE,144,11.5,11.5,100,0.00,CLR,,0.00,WeatherDisplay:10.37,2013-02-10 09:41:00,
2013-02-10 03:46:00,68.3,68.3,29.73,SSE,162,10.4,10.4,100,0.00,CLR,,0.00,WeatherDisplay:10.37,2013-02-10 09:46:00,
2013-02-10 03:51:00,68.2,68.2,29.73,SE,146,10.4,10.4,100,0.00,CLR,,0.00,WeatherDisplay:10.37,2013-02-10 09:51:00,
2013-02-10 03:56:00,68.1,68.1,29.74,SE,145,9.2,9.2,100,0.00,CLR,,0.00,WeatherDisplay:10.37,2013-02-10 09:56:00,
2013-02-10 04:01:00,68.3,68.3,29.74,SSE,150,6.9,6.9,100,0.00,CLR,,0.00,WeatherDisplay:10.37,2013-02-10 10:01:00,
2013-02-10 04:06:00,68.3,68.3,29.74,SSE,160,10.4,10.4,100,0.00,CLR,,0.00,WeatherDisplay:10.37,2013-02-10 10:06:00,
2013-02-10 04:11:00,68.3,68.3,29.74,SSE,155,8.1,8.1,100,0.00,CLR,,0.00,WeatherDisplay:10.37,2013-02-10 10:11:00,
2013-02-10 04:16:00,68.2,68.2,29.74,SE,144,12.7,12.7,100,0.00,CLR,,0.00,WeatherDisplay:10.37,2013-02-10 10:16:00,
2013-02-10 04:21:00,68.3,68.3,29.74,SSE,162,15.0,15.0,100,0.00,CLR,,0.00,WeatherDisplay:10.37,2013-02-10 10:21:00,
2013-02-10 04:26:00,68.3,68.3,29.73,South,184,11.5,11.5,100,0.00,CLR,,0.00,WeatherDisplay:10.37,2013-02-10 10:26:00,
2013-02-10 04:31:00,68.4,68.4,29.74,SSW,193,13.8,13.8,100,0.00,CLR,,0.00,WeatherDisplay:10.37,2013-02-10 10:31:00,
2013-02-10 04:36:00,68.4,68.4,29.74,SE,131,10.4,10.4,100,0.00,CLR,,0.00,WeatherDisplay:10.37,2013-02-10 10:36:00,
2013-02-10 04:41:00,68.4,68.4,29.74,SSW,207,10.4,10.4,100,0.00,CLR,,0.00,WeatherDisplay:10.37,2013-02-10 10:41:00,
2013-02-10 04:46:00,68.3,68.3,29.74,SSW,198,13.8,13.8,100,0.00,CLR,,0.00,WeatherDisplay:10.37,2013-02-10 10:46:00,
2013-02-10 04:51:00,68.3,68.3,29.75,South,172,16.1,16.1,100,0.00,CLR,,0.00,WeatherDisplay:10.37,2013-02-10 10:51:00,
2013-02-10 04:56:00,68.3,68.3,29.76,South,188,10.4,10.4,100,0.00,CLR,,0.00,WeatherDisplay:10.37,2013-02-10 10:56:00,
2013-02-10 05:01:00,68.2,68.2,29.75,South,176,6.9,6.9,100,0.00,CLR,,0.00,WeatherDisplay:10.37,2013-02-10 11:01:00,
2013-02-10 05:06:00,68.2,68.2,29.75,South,174,5.8,5.8,100,0.00,CLR,,0.00,WeatherDisplay:10.37,2013-02-10 11:06:00,
2013-02-10 05:11:00,68.2,68.2,29.75,South,169,10.4,10.4,100,0.00,CLR,,0.00,WeatherDisplay:10.37,2013-02-10 11:11:00,
2013-02-10 05:16:00,68.2,68.2,29.75,SSE,148,16.1,16.1,100,0.00,CLR,,0.00,WeatherDisplay:10.37,2013-02-10 11:16:00,
2013-02-10 05:21:00,68.3,68.3,29.76,South,179,9.2,9.2,100,0.00,CLR,,0.00,WeatherDisplay:10.37,2013-02-10 11:21:00,
2013-02-10 05:26:00,68.3,68.3,29.76,South,174,11.5,11.5,100,0.00,CLR,,0.00,WeatherDisplay:10.37,2013-02-10 11:26:00,
2013-02-10 05:31:00,68.2,68.2,29.76,SSE,148,5.3,5.3,100,0.00,CLR,,0.00,WeatherDisplay:10.37,2013-02-10 11:31:00,
2013-02-10 05:36:00,68.3,68.3,29.76,South,184,6.9,6.9,100,0.00,CLR,,0.00,WeatherDisplay:10.37,2013-02-10 11:36:00,
2013-02-10 05:41:00,68.3,68.3,29.75,SSE,148,10.4,10.4,100,0.00,CLR,,0.00,WeatherDisplay:10.37,2013-02-10 11:41:00,
2013-02-10 05:46:00,68.3,68.3,29.76,SSE,155,10.4,10.4,100,0.00,CLR,,0.00,WeatherDisplay:10.37,2013-02-10 11:46:00,
2013-02-10 05:51:00,68.3,68.3,29.76,SSE,161,14.7,14.7,100,0.00,CLR,,0.00,WeatherDisplay:10.37,2013-02-10 11:51:00,
2013-02-10 05:56:00,68.4,68.4,29.76,SSE,153,11.5,11.5,100,0.00,CLR,,0.00,WeatherDisplay:10.37,2013-02-10 11:56:00,
2013-02-10 06:01:00,68.4,68.4,29.76,South,169,10.4,10.4,100,0.00,CLR,,0.00,WeatherDisplay:10.37,2013-02-10 12:01:00,
2013-02-10 06:06:00,68.4,68.4,29.75,SSE,153,12.7,12.7,100,0.00,CLR,,0.00,WeatherDisplay:10.37,2013-02-10 12:06:00,
2013-02-10 06:11:00,68.4,68.4,29.76,SSE,147,5.8,5.8,100,0.00,CLR,,0.00,WeatherDisplay:10.37,2013-02-10 12:11:00,
2013-02-10 06:16:00,68.4,68.4,29.75,South,184,11.5,11.5,100,0.00,CLR,,0.00,WeatherDisplay:10.37,2013-02-10 12:16:00,
2013-02-10 06:21:00,68.4,68.4,29.75,South,170,13.8,13.8,100,0.00,CLR,,0.00,WeatherDisplay:10.37,2013-02-10 12:21:00,
2013-02-10 06:26:00,68.3,68.3,29.75,SSE,153,15.0,15.0,100,0.00,CLR,,0.00,WeatherDisplay:10.37,2013-02-10 12:26:00,
2013-02-10 06:31:00,68.2,68.2,29.75,SE,143,12.7,12.7,100,0.00,CLR,,0.00,WeatherDisplay:10.37,2013-02-10 12:31:00,
2013-02-10 06:36:00,68.2,68.2,29.75,SE,144,15.0,15.0,100,0.00,CLR,,0.00,WeatherDisplay:10.37,2013-02-10 12:36:00,
2013-02-10 06:41:00,68.2,68.2,29.76,South,182,12.7,12.7,100,0.00,CLR,,0.00,WeatherDisplay:10.37,2013-02-10 12:41:00,
2013-02-10 06:46:00,68.2,68.2,29.76,South,182,15.0,15.0,100,0.00,CLR,,0.00,WeatherDisplay:10.37,2013-02-10 12:46:00,
2013-02-10 06:51:00,68.2,68.2,29.76,SSW,211,11.5,11.5,100,0.00,CLR,,0.00,WeatherDisplay:10.37,2013-02-10 12:51:00,
2013-02-10 06:56:00,68.3,68.3,29.76,SE,134,18.4,18.4,100,0.00,CLR,,0.00,WeatherDisplay:10.37,2013-02-10 12:56:00,
2013-02-10 07:01:00,68.3,68.3,29.76,SE,142,15.0,15.0,100,0.00,CLR,,0.00,WeatherDisplay:10.37,2013-02-10 13:01:00,
2013-02-10 07:06:00,68.2,68.2,29.76,SSE,166,12.7,12.7,100,0.00,CLR,,0.00,WeatherDisplay:10.37,2013-02-10 13:06:00,
2013-02-10 07:11:00,68.2,68.2,29.76,SSE,158,12.7,12.7,100,0.00,CLR,,0.00,WeatherDisplay:10.37,2013-02-10 13:11:00,
2013-02-10 07:16:00,68.2,68.2,29.76,SE,129,18.4,18.4,100,0.00,CLR,,0.00,WeatherDisplay:10.37,2013-02-10 13:16:00,
2013-02-10 07:21:00,68.1,68.1,29.76,South,182,16.1,16.1,100,0.00,CLR,,0.00,WeatherDisplay:10.37,2013-02-10 13:21:00,
2013-02-10 07:26:00,68.1,68.1,29.76,SSE,150,11.6,11.6,100,0.00,CLR,,0.00,WeatherDisplay:10.37,2013-02-10 13:26:00,
2013-02-10 07:31:00,68.0,68.0,29.77,SE,124,11.5,11.5,100,0.00,CLR,,0.00,WeatherDisplay:10.37,2013-02-10 13:31:00,
2013-02-10 07:36:00,68.1,68.1,29.77,SSW,195,10.4,10.4,100,0.00,CLR,,0.00,WeatherDisplay:10.37,2013-02-10 13:36:00,
2013-02-10 07:41:00,68.1,68.1,29.77,SSE,149,10.4,10.4,100,0.00,CLR,,0.00,WeatherDisplay:10.37,2013-02-10 13:41:00,
2013-02-10 07:46:00,68.1,68.1,29.77,SSW,193,8.1,8.1,100,0.00,CLR,,0.00,WeatherDisplay:10.37,2013-02-10 13:46:00,
2013-02-10 07:51:00,68.2,68.2,29.77,SSW,195,11.5,11.5,100,0.00,CLR,,0.00,WeatherDisplay:10.37,2013-02-10 13:51:00,
2013-02-10 07:56:00,68.2,68.2,29.77,South,180,13.7,13.7,100,0.00,CLR,,0.00,WeatherDisplay:10.37,2013-02-10 13:56:00,
2013-02-10 08:01:00,68.4,68.4,29.78,SSE,165,15.0,15.0,100,0.00,CLR,,0.00,WeatherDisplay:10.37,2013-02-10 14:01:00,
2013-02-10 08:06:00,68.4,68.4,29.78,South,190,12.7,12.7,100,0.00,CLR,,0.00,WeatherDisplay:10.37,2013-02-10 14:06:00,
2013-02-10 08:11:00,68.4,68.4,29.78,South,184,13.8,13.8,100,0.00,CLR,,0.00,WeatherDisplay:10.37,2013-02-10 14:11:00,
2013-02-10 08:16:00,68.4,68.4,29.79,South,176,11.5,11.5,100,0.00,CLR,,0.00,WeatherDisplay:10.37,2013-02-10 14:16:00,
2013-02-10 08:21:00,68.4,68.4,29.79,South,186,12.7,12.7,100,0.00,CLR,,0.00,WeatherDisplay:10.37,2013-02-10 14:21:00,
2013-02-10 08:26:00,68.4,68.4,29.79,South,186,12.7,12.7,100,0.00,CLR,,0.00,WeatherDisplay:10.37,2013-02-10 14:26:00,
2013-02-10 08:31:00,68.5,68.5,29.80,South,186,12.7,12.7,100,0.00,CLR,,0.00,WeatherDisplay:10.37,2013-02-10 14:31:00,
2013-02-10 08:36:00,68.4,68.4,29.80,South,172,9.2,9.2,100,0.00,CLR,,0.00,WeatherDisplay:10.37,2013-02-10 14:36:00,
2013-02-10 08:41:00,68.4,68.4,29.80,South,186,12.7,12.7,100,0.00,CLR,,0.00,WeatherDisplay:10.37,2013-02-10 14:41:00,
2013-02-10 08:46:00,68.5,68.5,29.80,South,187,10.4,10.4,100,0.00,CLR,,0.00,WeatherDisplay:10.37,2013-02-10 14:46:00,
2013-02-10 08:51:00,68.6,68.6,29.80,SSE,159,6.3,6.3,100,0.00,CLR,,0.00,WeatherDisplay:10.37,2013-02-10 14:51:00,
2013-02-10 08:56:00,68.7,68.7,29.80,SSE,166,10.4,10.4,100,0.00,CLR,,0.00,WeatherDisplay:10.37,2013-02-10 14:56:00,
2013-02-10 09:01:00,68.8,68.5,29.81,SSW,199,6.9,6.9,99,0.00,CLR,,0.00,WeatherDisplay:10.37,2013-02-10 15:01:00,
2013-02-10 09:06:00,68.9,68.6,29.82,SSW,194,9.2,9.2,99,0.00,CLR,,0.00,WeatherDisplay:10.37,2013-02-10 15:06:00,
2013-02-10 09:11:00,68.9,68.6,29.82,SSW,203,5.8,5.8,99,0.00,CLR,,0.00,WeatherDisplay:10.37,2013-02-10 15:11:00,
2013-02-10 09:16:00,69.0,68.7,29.82,South,188,5.8,5.8,99,0.00,CLR,,0.00,WeatherDisplay:10.37,2013-02-10 15:16:00,
2013-02-10 09:21:00,69.1,68.8,29.82,SSW,213,6.9,6.9,99,0.00,CLR,,0.00,WeatherDisplay:10.37,2013-02-10 15:21:00,
2013-02-10 09:26:00,69.2,68.9,29.82,SSW,195,5.8,5.8,99,0.00,CLR,,0.00,WeatherDisplay:10.37,2013-02-10 15:26:00,
2013-02-10 09:31:00,69.6,69.3,29.83,SSW,200,5.8,5.8,99,0.00,CLR,,0.00,WeatherDisplay:10.37,2013-02-10 15:31:00,
2013-02-10 09:36:00,70.0,69.4,29.83,South,172,5.8,5.8,98,0.00,CLR,,0.00,WeatherDisplay:10.37,2013-02-10 15:36:00,
2013-02-10 09:41:00,70.2,69.6,29.83,South,177,5.8,5.8,98,0.00,CLR,,0.00,WeatherDisplay:10.37,2013-02-10 15:41:00,
2013-02-10 09:46:00,70.5,69.6,29.83,South,189,6.9,6.9,97,0.00,CLR,,0.00,WeatherDisplay:10.37,2013-02-10 15:46:00,
2013-02-10 09:51:00,70.5,69.6,29.83,SSW,197,6.9,6.9,97,0.00,CLR,,0.00,WeatherDisplay:10.37,2013-02-10 15:51:00,
2013-02-10 09:56:00,70.6,69.7,29.83,SSW,195,5.8,5.8,97,0.00,CLR,,0.00,WeatherDisplay:10.37,2013-02-10 15:56:00,
2013-02-10 10:01:00,70.9,69.7,29.83,South,187,6.9,6.9,96,0.00,CLR,,0.00,WeatherDisplay:10.37,2013-02-10 16:01:00,
2013-02-10 10:06:00,71.2,70.0,29.83,SSE,161,5.8,5.8,96,0.00,CLR,,0.00,WeatherDisplay:10.37,2013-02-10 16:06:00,
2013-02-10 10:11:00,71.8,70.3,29.83,South,179,6.9,6.9,95,0.00,CLR,,0.00,WeatherDisplay:10.37,2013-02-10 16:11:00,
2013-02-10 10:16:00,72.3,70.5,29.83,South,174,9.2,9.2,94,0.00,CLR,,0.00,WeatherDisplay:10.37,2013-02-10 16:16:00,
2013-02-10 10:21:00,72.6,70.5,29.84,SSW,194,4.6,4.6,93,0.00,CLR,,0.00,WeatherDisplay:10.37,2013-02-10 16:21:00,
2013-02-10 10:26:00,72.8,70.7,29.84,SW,230,4.6,4.6,93,0.00,CLR,,0.00,WeatherDisplay:10.37,2013-02-10 16:26:00,
2013-02-10 10:31:00,73.0,70.9,29.85,SW,223,5.8,5.8,93,0.00,CLR,,0.00,WeatherDisplay:10.37,2013-02-10 16:31:00,
2013-02-10 10:36:00,73.6,71.4,29.85,WSW,245,5.8,5.8,93,0.00,CLR,,0.00,WeatherDisplay:10.37,2013-02-10 16:36:00,
2013-02-10 10:41:00,73.7,70.9,29.85,WSW,258,5.8,5.8,91,0.00,CLR,,0.00,WeatherDisplay:10.37,2013-02-10 16:41:00,
2013-02-10 10:46:00,74.0,71.5,29.85,West,259,4.6,4.6,92,0.00,CLR,,0.00,WeatherDisplay:10.37,2013-02-10 16:46:00,
2013-02-10 10:51:00,74.1,71.3,29.85,West,259,2.3,2.3,91,0.00,CLR,,0.00,WeatherDisplay:10.37,2013-02-10 16:51:00,
2013-02-10 10:56:00,74.3,71.5,29.85,West,259,3.5,3.5,91,0.00,CLR,,0.00,WeatherDisplay:10.37,2013-02-10 16:56:00,
2013-02-10 11:01:00,74.4,71.3,29.85,WNW,292,4.6,4.6,90,0.00,CLR,,0.00,WeatherDisplay:10.37,2013-02-10 17:01:00,
2013-02-10 11:06:00,74.0,70.9,29.85,WNW,296,3.5,3.5,90,0.00,CLR,,0.00,WeatherDisplay:10.37,2013-02-10 17:06:00,
2013-02-10 11:11:00,73.9,71.1,29.85,WNW,297,5.8,5.8,91,0.00,CLR,,0.00,WeatherDisplay:10.37,2013-02-10 17:11:00,
2013-02-10 11:16:00,73.8,71.0,29.85,NW,304,4.6,4.6,91,0.00,CLR,,0.00,WeatherDisplay:10.37,2013-02-10 17:16:00,
2013-02-10 11:21:00,73.9,71.1,29.85,NW,304,5.8,5.8,91,0.00,CLR,,0.00,WeatherDisplay:10.37,2013-02-10 17:21:00,
2013-02-10 11:26:00,74.2,71.4,29.85,NW,312,5.8,5.8,91,0.00,CLR,,0.00,WeatherDisplay:10.37,2013-02-10 17:26:00,
2013-02-10 11:31:00,74.7,71.9,29.84,NW,311,3.5,3.5,91,0.00,CLR,,0.00,WeatherDisplay:10.37,2013-02-10 17:31:00,
2013-02-10 11:36:00,75.0,71.9,29.84,NNW,330,5.3,5.3,90,0.00,CLR,,0.00,WeatherDisplay:10.37,2013-02-10 17:36:00,
2013-02-10 11:41:00,74.7,71.6,29.84,NW,323,5.8,5.8,90,0.00,CLR,,0.00,WeatherDisplay:10.37,2013-02-10 17:41:00,
2013-02-10 11:46:00,74.5,71.7,29.84,North,349,6.9,6.9,91,0.00,CLR,,0.00,WeatherDisplay:10.37,2013-02-10 17:46:00,
2013-02-10 11:51:00,74.3,71.5,29.84,North,352,5.8,5.8,91,0.00,CLR,,0.00,WeatherDisplay:10.37,2013-02-10 17:51:00,
2013-02-10 11:56:00,74.3,71.5,29.83,North,359,5.8,5.8,91,0.00,CLR,,0.00,WeatherDisplay:10.37,2013-02-10 17:56:00,
2013-02-10 12:01:00,74.5,71.7,29.84,NNW,330,5.8,5.8,91,0.00,CLR,,0.00,WeatherDisplay:10.37,2013-02-10 18:01:00,
2013-02-10 12:06:00,74.7,71.9,29.83,NW,326,6.9,6.9,91,0.00,CLR,,0.00,WeatherDisplay:10.37,2013-02-10 18:06:00,
2013-02-10 12:11:00,74.9,72.1,29.83,North,0,6.3,6.3,91,0.00,CLR,,0.00,WeatherDisplay:10.37,2013-02-10 18:11:00,
2013-02-10 12:16:00,75.4,72.3,29.83,NNW,347,5.8,5.8,90,0.00,CLR,,0.00,WeatherDisplay:10.37,2013-02-10 18:16:00,
2013-02-10 12:21:00,75.6,72.1,29.82,NNW,348,11.5,11.5,89,0.00,CLR,,0.00,WeatherDisplay:10.37,2013-02-10 18:21:00,
2013-02-10 12:26:00,75.7,72.2,29.82,North,1,9.2,9.2,89,0.00,CLR,,0.00,WeatherDisplay:10.37,2013-02-10 18:26:00,
2013-02-10 12:31:00,75.8,72.3,29.82,NNW,340,6.3,6.3,89,0.00,CLR,,0.00,WeatherDisplay:10.37,2013-02-10 18:31:00,
2013-02-10 12:36:00,76.0,71.8,29.82,NW,314,6.9,6.9,87,0.00,CLR,,0.00,WeatherDisplay:10.37,2013-02-10 18:36:00,
2013-02-10 12:41:00,76.4,72.2,29.82,NNW,328,4.6,4.6,87,0.00,CLR,,0.00,WeatherDisplay:10.37,2013-02-10 18:41:00,
2013-02-10 12:46:00,76.5,72.0,29.82,NW,319,5.8,5.8,86,0.00,CLR,,0.00,WeatherDisplay:10.37,2013-02-10 18:46:00,
2013-02-10 12:51:00,76.8,72.3,29.82,NW,316,5.8,5.8,86,0.00,CLR,,0.00,WeatherDisplay:10.37,2013-02-10 18:51:00,
2013-02-10 12:56:00,77.2,72.0,29.82,NW,309,7.4,7.4,84,0.00,CLR,,0.00,WeatherDisplay:10.37,2013-02-10 18:56:00,
2013-02-10 13:01:00,77.6,72.0,29.81,NNW,348,5.8,5.8,83,0.00,CLR,,0.00,WeatherDisplay:10.37,2013-02-10 19:01:00,
2013-02-10 13:06:00,78.0,71.3,29.81,NNW,346,6.9,6.9,80,0.00,CLR,,0.00,WeatherDisplay:10.37,2013-02-10 19:06:00,
2013-02-10 13:11:00,79.2,71.7,29.81,West,281,6.9,6.9,78,0.00,CLR,,0.00,WeatherDisplay:10.37,2013-02-10 19:11:00,
2013-02-10 13:16:00,79.7,71.8,29.80,NNW,335,6.9,6.9,77,0.00,CLR,,0.00,WeatherDisplay:10.37,2013-02-10 19:16:00,
2013-02-10 13:21:00,80.2,71.9,29.80,WNW,301,6.9,6.9,76,0.00,CLR,,0.00,WeatherDisplay:10.37,2013-02-10 19:21:00,
2013-02-10 13:26:00,80.5,71.8,29.80,West,274,4.6,4.6,75,0.00,CLR,,0.00,WeatherDisplay:10.37,2013-02-10 19:26:00,
2013-02-10 13:31:00,80.8,71.3,29.80,NNW,328,9.2,9.2,73,0.00,CLR,,0.00,WeatherDisplay:10.37,2013-02-10 19:31:00,
2013-02-10 13:36:00,76.5,62.5,29.81,NNW,345,18.4,18.4,62,0.00,CLR,,0.00,WeatherDisplay:10.37,2013-02-10 19:36:00,
2013-02-10 13:41:00,73.8,61.7,29.82,North,0,21.9,21.9,66,0.00,CLR,,0.00,WeatherDisplay:10.37,2013-02-10 19:41:00,
2013-02-10 13:46:00,72.3,60.7,29.81,NNW,333,18.4,18.4,67,0.00,CLR,,0.00,WeatherDisplay:10.37,2013-02-10 19:46:00,
2013-02-10 13:51:00,71.6,60.1,29.81,North,8,18.4,18.4,67,0.00,CLR,,0.00,WeatherDisplay:10.37,2013-02-10 19:51:00,
2013-02-10 13:56:00,72.0,60.0,29.80,NNE,21,15.0,15.0,66,0.00,CLR,,0.00,WeatherDisplay:10.37,2013-02-10 19:56:00,
2013-02-10 14:01:00,72.9,61.3,29.81,NNE,16,16.1,16.1,67,0.00,CLR,,0.00,WeatherDisplay:10.37,2013-02-10 20:01:00,
2013-02-10 14:06:00,72.7,61.1,29.82,NNE,20,17.3,17.3,67,0.00,CLR,,0.00,WeatherDisplay:10.37,2013-02-10 20:06:00,
2013-02-10 14:11:00,72.5,60.9,29.81,NNE,26,10.4,10.4,67,0.00,CLR,,0.00,WeatherDisplay:10.37,2013-02-10 20:11:00,
2013-02-10 14:16:00,72.0,59.6,29.81,North,4,18.4,18.4,65,0.00,CLR,,0.00,WeatherDisplay:10.37,2013-02-10 20:16:00,
2013-02-10 14:21:00,71.8,59.8,29.81,NNE,15,16.1,16.1,66,0.00,CLR,,0.00,WeatherDisplay:10.37,2013-02-10 20:21:00,
2013-02-10 14:26:00,72.0,60.4,29.81,NE,36,12.7,12.7,67,0.00,CLR,,0.00,WeatherDisplay:10.37,2013-02-10 20:26:00,
2013-02-10 14:31:00,72.2,60.2,29.82,NNE,27,11.6,11.6,66,0.00,CLR,,0.00,WeatherDisplay:10.37,2013-02-10 20:31:00,
2013-02-10 14:36:00,71.7,60.2,29.81,North,356,13.8,13.8,67,0.00,CLR,,0.00,WeatherDisplay:10.37,2013-02-10 20:36:00,
2013-02-10 14:41:00,71.3,58.9,29.81,NE,41,19.6,19.6,65,0.00,CLR,,0.00,WeatherDisplay:10.37,2013-02-10 20:41:00,
2013-02-10 14:46:00,71.0,58.6,29.80,NNE,25,10.4,10.4,65,0.00,CLR,,0.00,WeatherDisplay:10.37,2013-02-10 20:46:00,
2013-02-10 14:51:00,71.1,58.7,29.80,North,3,10.5,10.5,65,0.00,CLR,,0.00,WeatherDisplay:10.37,2013-02-10 20:51:00,
2013-02-10 14:56:00,70.8,58.4,29.80,NNE,27,13.8,13.8,65,0.00,CLR,,0.00,WeatherDisplay:10.37,2013-02-10 20:56:00,
2013-02-10 15:01:00,70.8,59.3,29.80,NNE,13,6.9,6.9,67,0.00,CLR,,0.00,WeatherDisplay:10.37,2013-02-10 21:01:00,
2013-02-10 15:06:00,70.4,58.9,29.80,North,356,17.3,17.3,67,0.00,CLR,,0.00,WeatherDisplay:10.37,2013-02-10 21:06:00,
2013-02-10 15:11:00,69.7,58.7,29.80,North,0,11.5,11.5,68,0.00,CLR,,0.00,WeatherDisplay:10.37,2013-02-10 21:11:00,
2013-02-10 15:16:00,69.3,58.7,29.80,North,1,13.8,13.8,69,0.00,CLR,,0.00,WeatherDisplay:10.37,2013-02-10 21:16:00,
2013-02-10 15:21:00,68.9,58.7,29.80,North,4,15.0,15.0,70,0.00,CLR,,0.00,WeatherDisplay:10.37,2013-02-10 21:21:00,
2013-02-10 15:26:00,68.7,59.3,29.80,NNE,18,6.9,6.9,72,0.00,CLR,,0.00,WeatherDisplay:10.37,2013-02-10 21:26:00,
2013-02-10 15:31:00,68.8,59.4,29.80,NNE,32,15.0,15.0,72,0.00,CLR,,0.00,WeatherDisplay:10.37,2013-02-10 21:31:00,
2013-02-10 15:36:00,69.0,60.0,29.80,NE,50,10.4,10.4,73,0.00,CLR,,0.00,WeatherDisplay:10.37,2013-02-10 21:36:00,
2013-02-10 15:41:00,69.0,60.0,29.80,NNE,29,13.8,13.8,73,0.00,CLR,,0.00,WeatherDisplay:10.37,2013-02-10 21:41:00,
2013-02-10 15:46:00,68.9,59.9,29.81,North,1,13.8,13.8,73,0.00,CLR,,0.00,WeatherDisplay:10.37,2013-02-10 21:46:00,
2013-02-10 15:51:00,68.7,60.1,29.81,North,0,12.7,12.7,74,0.00,CLR,,0.00,WeatherDisplay:10.37,2013-02-10 21:51:00,
2013-02-10 15:56:00,68.8,60.6,29.80,North,7,13.8,13.8,75,0.00,CLR,,0.00,WeatherDisplay:10.37,2013-02-10 21:56:00,
2013-02-10 16:01:00,68.9,60.6,29.80,North,1,6.9,7.8,75,0.00,CLR,,0.00,WeatherDisplay:10.37,2013-02-10 22:01:00,
2013-02-10 16:06:00,68.5,60.3,29.80,NNE,27,12.7,12.7,75,0.00,CLR,,0.00,WeatherDisplay:10.37,2013-02-10 22:06:00,
2013-02-10 16:11:00,68.4,59.8,29.80,NNE,23,15.0,15.0,74,0.00,CLR,,0.00,WeatherDisplay:10.37,2013-02-10 22:11:00,
2013-02-10 16:16:00,68.3,59.7,29.80,North,10,12.7,12.7,74,0.00,CLR,,0.00,WeatherDisplay:10.37,2013-02-10 22:16:00,
2013-02-10 16:21:00,68.2,58.8,29.80,NE,34,11.5,11.5,72,0.00,CLR,,0.00,WeatherDisplay:10.37,2013-02-10 22:21:00,
2013-02-10 16:26:00,68.1,58.3,29.80,NE,56,15.0,15.0,71,0.00,CLR,,0.00,WeatherDisplay:10.37,2013-02-10 22:26:00,
2013-02-10 16:31:00,68.3,58.9,29.80,North,9,5.8,5.8,72,0.00,CLR,,0.00,WeatherDisplay:10.37,2013-02-10 22:31:00,
2013-02-10 16:36:00,68.2,58.4,29.81,NNE,14,11.5,11.5,71,0.00,CLR,,0.00,WeatherDisplay:10.37,2013-02-10 22:36:00,
2013-02-10 16:41:00,68.1,58.7,29.81,NE,40,9.4,9.4,72,0.00,CLR,,0.00,WeatherDisplay:10.37,2013-02-10 22:41:00,
2013-02-10 16:46:00,68.1,58.3,29.82,NNE,15,13.8,13.8,71,0.00,CLR,,0.00,WeatherDisplay:10.37,2013-02-10 22:46:00,
2013-02-10 16:51:00,68.0,58.2,29.82,NNE,27,10.5,10.5,71,0.00,CLR,,0.00,WeatherDisplay:10.37,2013-02-10 22:51:00,
2013-02-10 16:56:00,67.8,56.9,29.82,NE,44,15.0,15.0,68,0.00,CLR,,0.00,WeatherDisplay:10.37,2013-02-10 22:56:00,
2013-02-10 17:01:00,67.6,56.7,29.82,NNE,25,12.7,12.7,68,0.00,CLR,,0.00,WeatherDisplay:10.37,2013-02-10 23:01:00,
2013-02-10 17:06:00,67.4,55.6,29.82,North,8,15.0,15.0,66,0.00,CLR,,0.00,WeatherDisplay:10.37,2013-02-10 23:06:00,
2013-02-10 17:11:00,67.3,54.7,29.82,ENE,66,12.7,12.7,64,0.00,CLR,,0.00,WeatherDisplay:10.37,2013-02-10 23:11:00,
2013-02-10 17:16:00,67.2,54.6,29.82,NNE,24,15.0,15.0,64,0.00,CLR,,0.00,WeatherDisplay:10.37,2013-02-10 23:16:00,
2013-02-10 17:21:00,67.1,54.5,29.82,NE,51,8.1,8.1,64,0.00,CLR,,0.00,WeatherDisplay:10.37,2013-02-10 23:21:00,
2013-02-10 17:26:00,67.0,54.4,29.82,NNE,30,12.7,12.7,64,0.00,CLR,,0.00,WeatherDisplay:10.37,2013-02-10 23:26:00,
2013-02-10 17:31:00,67.0,54.8,29.82,NE,34,15.0,15.0,65,0.00,CLR,,0.00,WeatherDisplay:10.37,2013-02-10 23:31:00,
2013-02-10 17:36:00,66.9,54.7,29.82,NE,51,11.5,11.5,65,0.00,CLR,,0.00,WeatherDisplay:10.37,2013-02-10 23:36:00,
2013-02-10 17:41:00,66.9,54.7,29.82,NE,54,8.1,8.1,65,0.00,CLR,,0.00,WeatherDisplay:10.37,2013-02-10 23:41:00,
2013-02-10 17:46:00,66.8,55.1,29.82,ENE,60,5.3,5.3,66,0.00,CLR,,0.00,WeatherDisplay:10.37,2013-02-10 23:46:00,
2013-02-10 17:51:00,66.7,55.0,29.82,North,10,12.7,12.7,66,0.00,CLR,,0.00,WeatherDisplay:10.37,2013-02-10 23:51:00,
2013-02-10 17:56:00,66.6,54.9,29.82,NE,42,9.2,9.2,66,0.00,CLR,,0.00,WeatherDisplay:10.37,2013-02-10 23:56:00,
2013-02-10 18:01:00,66.6,54.9,29.82,NE,50,10.4,10.4,66,0.00,CLR,,0.00,WeatherDisplay:10.37,2013-02-11 00:01:00,
2013-02-10 18:06:00,66.4,54.7,29.82,NE,39,15.0,15.0,66,0.00,CLR,,0.00,WeatherDisplay:10.37,2013-02-11 00:06:00,
2013-02-10 18:11:00,66.3,54.2,29.83,NNE,18,10.4,10.4,65,0.00,CLR,,0.00,WeatherDisplay:10.37,2013-02-11 00:11:00,
2013-02-10 18:16:00,66.2,54.5,29.83,NE,37,10.4,10.4,66,0.00,CLR,,0.00,WeatherDisplay:10.37,2013-02-11 00:16:00,
2013-02-10 18:21:00,66.1,54.0,29.83,NNE,13,10.4,10.4,65,0.00,CLR,,0.00,WeatherDisplay:10.37,2013-02-11 00:21:00,
2013-02-10 18:26:00,66.1,54.4,29.83,NE,44,11.6,11.6,66,0.00,CLR,,0.00,WeatherDisplay:10.37,2013-02-11 00:26:00,
2013-02-10 18:31:00,66.0,54.3,29.83,NE,34,10.5,10.5,66,0.00,CLR,,0.00,WeatherDisplay:10.37,2013-02-11 00:31:00,
2013-02-10 18:36:00,66.0,54.3,29.83,North,0,15.0,15.0,66,0.00,CLR,,0.00,WeatherDisplay:10.37,2013-02-11 00:36:00,
2013-02-10 18:41:00,65.9,54.2,29.84,NNE,23,8.1,8.1,66,0.00,CLR,,0.00,WeatherDisplay:10.37,2013-02-11 00:41:00,
2013-02-10 18:46:00,65.9,54.6,29.84,NNE,23,11.5,11.5,67,0.00,CLR,,0.00,WeatherDisplay:10.37,2013-02-11 00:46:00,
2013-02-10 18:51:00,65.8,54.5,29.84,NNE,25,9.2,9.2,67,0.00,CLR,,0.00,WeatherDisplay:10.37,2013-02-11 00:51:00,
2013-02-10 18:56:00,65.7,54.8,29.85,NNE,31,9.2,9.2,68,0.00,CLR,,0.00,WeatherDisplay:10.37,2013-02-11 00:56:00,
2013-02-10 19:01:00,65.7,54.8,29.85,NNE,13,9.2,9.2,68,0.00,CLR,,0.00,WeatherDisplay:10.37,2013-02-11 01:01:00,
2013-02-10 19:06:00,65.6,55.2,29.85,NNE,25,9.2,9.2,69,0.00,CLR,,0.00,WeatherDisplay:10.37,2013-02-11 01:06:00,
2013-02-10 19:11:00,65.5,55.1,29.85,North,1,6.9,6.9,69,0.00,CLR,,0.00,WeatherDisplay:10.37,2013-02-11 01:11:00,
2013-02-10 19:16:00,65.4,55.0,29.85,NNE,12,8.1,8.1,69,0.00,CLR,,0.00,WeatherDisplay:10.37,2013-02-11 01:16:00,
2013-02-10 19:21:00,65.3,55.3,29.85,NNE,31,6.9,6.9,70,0.00,CLR,,0.00,WeatherDisplay:10.37,2013-02-11 01:21:00,
2013-02-10 19:26:00,65.2,55.2,29.85,NNE,15,11.5,11.5,70,0.00,CLR,,0.00,WeatherDisplay:10.37,2013-02-11 01:26:00,
2013-02-10 19:31:00,65.2,55.6,29.85,NNE,22,4.6,4.6,71,0.00,CLR,,0.00,WeatherDisplay:10.37,2013-02-11 01:31:00,
2013-02-10 19:36:00,65.2,55.6,29.85,NNW,348,9.2,9.2,71,0.00,CLR,,0.00,WeatherDisplay:10.37,2013-02-11 01:36:00,
2013-02-10 19:41:00,65.2,55.6,29.85,NE,53,5.8,5.8,71,0.00,CLR,,0.00,WeatherDisplay:10.37,2013-02-11 01:41:00,
2013-02-10 19:46:00,65.3,55.3,29.85,NNE,23,6.9,6.9,70,0.00,CLR,,0.00,WeatherDisplay:10.37,2013-02-11 01:46:00,
2013-02-10 19:51:00,65.3,55.3,29.85,NE,43,6.9,6.9,70,0.00,CLR,,0.00,WeatherDisplay:10.37,2013-02-11 01:51:00,
2013-02-10 19:56:00,65.4,55.0,29.85,NNE,13,6.9,6.9,69,0.00,CLR,,0.00,WeatherDisplay:10.37,2013-02-11 01:56:00,
2013-02-10 20:01:00,65.4,55.0,29.85,NE,41,6.9,6.9,69,0.00,CLR,,0.00,WeatherDisplay:10.37,2013-02-11 02:01:00,
2013-02-10 20:06:00,65.6,54.3,29.86,NNE,29,9.2,9.2,67,0.00,CLR,,0.00,WeatherDisplay:10.37,2013-02-11 02:06:00,
2013-02-10 20:11:00,65.8,53.7,29.86,NNE,14,12.7,12.7,65,0.00,CLR,,0.00,WeatherDisplay:10.37,2013-02-11 02:11:00,
2013-02-10 20:16:00,65.9,53.8,29.86,NNE,27,6.9,6.9,65,0.00,CLR,,0.00,WeatherDisplay:10.37,2013-02-11 02:16:00,
2013-02-10 20:21:00,65.9,53.4,29.86,ENE,63,10.4,10.4,64,0.00,CLR,,0.00,WeatherDisplay:10.37,2013-02-11 02:21:00,
2013-02-10 20:26:00,65.8,53.3,29.86,NNE,13,9.2,9.2,64,0.00,CLR,,0.00,WeatherDisplay:10.37,2013-02-11 02:26:00,
2013-02-10 20:31:00,65.8,53.3,29.86,NNE,25,15.0,15.0,64,0.00,CLR,,0.00,WeatherDisplay:10.37,2013-02-11 02:31:00,
2013-02-10 20:36:00,65.8,53.7,29.87,NNE,32,10.4,10.4,65,0.00,CLR,,0.00,WeatherDisplay:10.37,2013-02-11 02:36:00,
2013-02-10 20:41:00,65.8,53.7,29.87,NE,45,6.9,6.9,65,0.00,CLR,,0.00,WeatherDisplay:10.37,2013-02-11 02:41:00,
2013-02-10 20:46:00,65.8,54.1,29.87,NNE,15,12.7,12.7,66,0.00,CLR,,0.00,WeatherDisplay:10.37,2013-02-11 02:46:00,
2013-02-10 20:51:00,65.7,54.4,29.88,NE,43,11.5,11.5,67,0.00,CLR,,0.00,WeatherDisplay:10.37,2013-02-11 02:51:00,
2013-02-10 20:56:00,65.7,54.8,29.88,NE,42,10.4,10.4,68,0.00,CLR,,0.00,WeatherDisplay:10.37,2013-02-11 02:56:00,
2013-02-10 21:01:00,65.7,54.8,29.88,ENE,74,6.9,6.9,68,0.00,CLR,,0.00,WeatherDisplay:10.37,2013-02-11 03:01:00,
2013-02-10 21:06:00,65.7,54.8,29.88,NNE,23,7.4,7.4,68,0.00,CLR,,0.00,WeatherDisplay:10.37,2013-02-11 03:06:00,
2013-02-10 21:11:00,65.7,54.8,29.88,NNE,23,9.2,9.2,68,0.00,CLR,,0.00,WeatherDisplay:10.37,2013-02-11 03:11:00,
2013-02-10 21:16:00,65.7,54.8,29.89,NE,53,11.5,11.5,68,0.00,CLR,,0.00,WeatherDisplay:10.37,2013-02-11 03:16:00,
2013-02-10 21:21:00,65.7,55.2,29.89,NNE,25,10.4,10.4,69,0.00,CLR,,0.00,WeatherDisplay:10.37,2013-02-11 03:21:00,
2013-02-10 21:26:00,65.6,54.8,29.89,NNE,27,9.2,9.2,68,0.00,CLR,,0.00,WeatherDisplay:10.37,2013-02-11 03:26:00,
2013-02-10 21:31:00,65.6,55.2,29.89,NNE,25,12.7,12.7,69,0.00,CLR,,0.00,WeatherDisplay:10.37,2013-02-11 03:31:00,
2013-02-10 21:36:00,65.5,55.1,29.89,ENE,58,6.9,7.0,69,0.00,CLR,,0.00,WeatherDisplay:10.37,2013-02-11 03:36:00,
2013-02-10 21:41:00,65.5,55.1,29.89,NNE,26,10.5,10.5,69,0.00,CLR,,0.00,WeatherDisplay:10.37,2013-02-11 03:41:00,
2013-02-10 21:46:00,65.5,55.1,29.88,NNE,15,6.9,6.9,69,0.00,CLR,,0.00,WeatherDisplay:10.37,2013-02-11 03:46:00,
2013-02-10 21:51:00,65.5,55.1,29.89,NE,37,8.1,8.1,69,0.00,CLR,,0.00,WeatherDisplay:10.37,2013-02-11 03:51:00,
2013-02-10 21:56:00,65.5,55.1,29.89,NE,55,13.8,13.8,69,0.00,CLR,,0.00,WeatherDisplay:10.37,2013-02-11 03:56:00,
2013-02-10 22:01:00,65.5,55.1,29.89,ENE,57,6.9,6.9,69,0.00,CLR,,0.00,WeatherDisplay:10.37,2013-02-11 04:01:00,
2013-02-10 22:06:00,65.5,54.7,29.88,NE,39,6.9,6.9,68,0.00,CLR,,0.00,WeatherDisplay:10.37,2013-02-11 04:06:00,
2013-02-10 22:11:00,65.4,54.6,29.88,NNE,28,12.7,12.7,68,0.00,CLR,,0.00,WeatherDisplay:10.37,2013-02-11 04:11:00,
2013-02-10 22:16:00,65.4,54.6,29.88,NNE,27,12.7,12.7,68,0.00,CLR,,0.00,WeatherDisplay:10.37,2013-02-11 04:16:00,
2013-02-10 22:21:00,65.4,55.0,29.89,NNE,30,5.8,5.8,69,0.00,CLR,,0.00,WeatherDisplay:10.37,2013-02-11 04:21:00,
2013-02-10 22:26:00,65.4,55.0,29.89,ENE,72,8.1,8.1,69,0.00,CLR,,0.00,WeatherDisplay:10.37,2013-02-11 04:26:00,
2013-02-10 22:31:00,65.3,54.9,29.89,NE,34,7.4,7.4,69,0.00,CLR,,0.00,WeatherDisplay:10.37,2013-02-11 04:31:00,
2013-02-10 22:36:00,65.3,55.3,29.89,NE,36,5.8,5.8,70,0.00,CLR,,0.00,WeatherDisplay:10.37,2013-02-11 04:36:00,
2013-02-10 22:41:00,65.3,55.7,29.89,ENE,63,6.9,6.9,71,0.00,CLR,,0.00,WeatherDisplay:10.37,2013-02-11 04:41:00,
2013-02-10 22:46:00,65.3,56.0,29.89,ENE,61,11.5,11.5,72,0.00,CLR,,0.00,WeatherDisplay:10.37,2013-02-11 04:46:00,
2013-02-10 22:51:00,65.3,56.4,29.89,ENE,73,6.9,6.9,73,0.00,CLR,,0.00,WeatherDisplay:10.37,2013-02-11 04:51:00,
2013-02-10 22:56:00,65.3,56.4,29.89,NE,56,5.8,5.8,73,0.00,CLR,,0.00,WeatherDisplay:10.37,2013-02-11 04:56:00,
2013-02-10 23:00:00,65.3,56.4,29.89,NE,46,6.9,6.9,73,0.00,CLR,,0.00,WeatherDisplay:10.37,2013-02-11 05:00:00,
2013-02-10 23:05:00,65.3,56.8,29.90,NNE,18,6.9,6.9,74,0.00,CLR,,0.00,WeatherDisplay:10.37,2013-02-11 05:05:00,
2013-02-10 23:10:00,65.3,56.8,29.91,NNE,15,5.8,5.8,74,0.00,CLR,,0.00,WeatherDisplay:10.37,2013-02-11 05:10:00,
2013-02-10 23:15:00,65.3,56.8,29.91,NE,51,9.2,9.2,74,0.00,CLR,,0.00,WeatherDisplay:10.37,2013-02-11 05:15:00,
2013-02-10 23:20:00,65.3,56.8,29.91,NE,46,6.9,6.9,74,0.00,CLR,,0.00,WeatherDisplay:10.37,2013-02-11 05:20:00,
2013-02-10 23:25:00,65.2,57.1,29.91,North,1,6.9,6.9,75,0.00,CLR,,0.00,WeatherDisplay:10.37,2013-02-11 05:25:00,
2013-02-10 23:30:00,65.2,57.1,29.91,ENE,69,5.8,5.8,75,0.00,CLR,,0.00,WeatherDisplay:10.37,2013-02-11 05:30:00,
2013-02-10 23:35:00,65.1,57.7,29.91,North,4,5.8,5.8,77,0.00,CLR,,0.00,WeatherDisplay:10.37,2013-02-11 05:35:00,
2013-02-10 23:40:00,65.1,57.7,29.91,NNE,23,9.2,9.2,77,0.00,CLR,,0.00,WeatherDisplay:10.37,2013-02-11 05:40:00,
2013-02-10 23:45:00,64.9,57.2,29.91,NNE,23,4.6,4.6,76,0.00,CLR,,0.00,WeatherDisplay:10.37,2013-02-11 05:45:00,
2013-02-10 23:50:00,64.7,56.6,29.91,NNE,26,4.6,4.6,75,0.00,CLR,,0.00,WeatherDisplay:10.37,2013-02-11 05:50:00,
2013-02-10 23:55:00,64.5,56.4,29.91,North,3,5.8,5.8,75,0.00,CLR,,0.00,WeatherDisplay:10.37,2013-02-11 05:55:00,